Regional Weather Roundup
Issued by NWS

Home | Current Version | Previous Version | Graphics & Text | Print | Product List | Glossary On
Versions: 1 2 3 4 5 6 7 8 9 10 11 12 13 14 15 16 17 18 19 20 21 22 23 24 25 26 27 28 29 30 31 32 33 34 35 36 37 38 39 40 41 42 43 44 45 46 47 48 49 50
000
ASUS43 KMPX 040310
RWRMN
WEATHER ROUNDUP FOR MINNESOTA
NATIONAL WEATHER SERVICE TWIN CITIES/CHANHASSEN MN
900 PM CST SAT DEC 03 2016


NOTE: "FAIR" INDICATES FEW OR NO CLOUDS BELOW 12,000 FEET WITH NO
SIGNIFICANT WEATHER AND/OR OBSTRUCTIONS TO VISIBILITY. N/A MEANS
CURRENT SKY AND/OR WEATHER CONDITIONS ARE NOT AVAILABLE.

MNZ060>063-068>070-040400-
   Twin Cities Metro

CITY           SKY/WX    TMP DP  RH WIND       PRES   REMARKS
TWIN CITIES    CLOUDY    32  24  72 SE7       30.15F WCI  26
ST PAUL        CLOUDY    32  25  75 SE10      30.17F WCI  24
CRYSTAL        CLOUDY    32  22  66 SE7       30.14F WCI  26
BLAINE         CLOUDY    32  25  74 SE8       30.15F WCI  25
LAKEVILLE      CLOUDY    30  27  86 SE7       30.15F WCI  23
EDEN PRAIRIE   CLOUDY    33  25  72 SE8       30.13F WCI  26
SOUTH ST PAUL  CLOUDY    32  24  72 SE7       30.16F WCI  26
LAKE ELMO      CLOUDY    32  27  80 SE5       30.17F WCI  27
$$
MNZ001>005-007-008-013>017-022>024-027-028-040400-
   Northwest Minnesota

CITY           SKY/WX    TMP DP  RH WIND       PRES   REMARKS
BEMIDJI        CLOUDY    25  22  87 SE9       30.03F WCI  16
HALLOCK        LGT SNOW  28  25  86 SE15      29.95F WCI  17
ROSEAU         MOCLDY    25  19  80 SE9       30.01F WCI  15
WARROAD        PTCLDY    23  19  86 SE7       30.02F WCI  15
THIEF RVR FALL FLURRIES  27  23  85 SE14      29.98F WCI  16
CROOKSTON      CLOUDY    30  27  86 S15       29.96F WCI  19
FOSSTON        CLOUDY    27  21  80 SE13      29.98F WCI  16
DETROIT LAKES  CLOUDY    30  28  93 SE14      29.99F WCI  20
MOORHEAD       CLOUDY    34  30  86 S16       29.98S WCI  23
PARK RAPIDS    CLOUDY    27  22  81 SE13      30.03F WCI  16
$$
MNZ006-009>011-018-025>026-040400-
   North Central Minnesota

CITY           SKY/WX    TMP DP  RH WIND       PRES   REMARKS
BAUDETTE       CLEAR     22  18  85 SE10      30.04F WCI  11
FLAG ISLAND    MOCLDY    27  21  80 S24       30.03F WCI  12
INTL FALLS     CLOUDY    26  19  74 SE6       30.09F WCI  19
WASKISH        PTCLDY    21  19  93 E6        30.04F WCI  14
BIG FORK       PTCLDY    27  19  74 SE6       30.08F WCI  20
LONGVILLE      FLURRIES  27  21  80 SE5       30.07F WCI  21
GRAND RAPIDS   CLOUDY    26  20  77 SE7       30.11F WCI  18
CRANE LAKE     CLOUDY    27  19  74 CALM      30.14F
ORR            MOCLDY    25  18  74 S6        30.08F WCI  18
COOK           MOCLDY    27  19  74 S7        30.11F WCI  19
$$
MNZ012-019>021-037-040400-
   Northeast Minnesota

CITY           SKY/WX    TMP DP  RH WIND       PRES   REMARKS
DULUTH         CLOUDY    28  20  71 S8        30.13F WCI  20
ELY            CLOUDY    27  19  74 S6        30.13F WCI  20
HIBBING        CLOUDY    26  19  74 S6        30.11F WCI  19
EVELETH        CLOUDY    28  19  71 S8        30.13F WCI  19
DULUTH HARBOR  CLOUDY    32  23  69 S7        30.19F WCI  26
TWO HARBORS    CLOUDY    32  23  69 S5        30.14F WCI  27
SILVER BAY     CLOUDY    30  23  74 S6        30.14F WCI  24
GRAND MARAIS     N/A     35  29  78 W5        30.18F WCI  31
G MARAIS ARPRT CLOUDY    27  21  80 S5        30.13F WCI  21
$$
MNZ029>031-032-039>041-046>048-054>057-064-040400-
   West Central Minnesota

CITY           SKY/WX    TMP DP  RH WIND       PRES   REMARKS
FERGUS FALLS   CLOUDY    32  32 100 S18       30.03F WCI  20
WHEATON        CLOUDY   N/A N/A N/A S13       30.01F HAZE
MORRIS         CLOUDY    34  32  93 SE17      30.01S FOG     WCI  23
ALEXANDRIA     LGT SNOW  31  30  96 SE9       30.04F FOG     WCI  23
ELBOW LAKE     CLOUDY    32  31  98 E16       30.01F WCI  21
WADENA         MIX PCPN  27  27 100 SE9       30.03F WCI  17
GLENWOOD       LGT SNOW  30  30 100 SE14      30.04F WCI  20
APPLETON       CLOUDY    36  32  87 S12       30.02F FOG
BENSON         LGT SNOW  34  30  86 S10       30.04F WCI  26
ORTONVILLE     CLOUDY    34  30  86 CALM      30.00F FOG
MADISON        CLOUDY    37  36  93 S9        30.02F
WILLMAR        LGT SNOW  34  32  93 SE12      30.07F WCI  25
$$
MNZ033>034-036-042>043-049>051-058-059-040400-
   Central Minnesota

CITY           SKY/WX    TMP DP  RH WIND       PRES   REMARKS
ST CLOUD       CLOUDY    30  24  78 SE7       30.10F WCI  23
PAYNESVILLE    LGT SNOW  31  32 100 SE9       30.08F WCI  23
AITKIN         CLOUDY    30  21  69 SE8       30.08F WCI  23
PINE RIVER     FLURRIES  27  25  93 SE9       30.10F WCI  17
BRAINERD       CLOUDY    28  23  81 SE6       30.09F WCI  22
STAPLES        CLOUDY    27  23  86 SE8       30.05F WCI  18
LONG PRAIRIE   FLURRIES  30  27  86 E10       30.06F WCI  21
LITTLE FALLS   CLOUDY    30  23  74 SE9       30.09F WCI  22
LITCHFIELD     LGT SNOW  34  30  86 SE7       30.09F WCI  28
BUFFALO        CLOUDY    32  26  78 SE7       30.13F WCI  25
MAPLE LAKE     CLOUDY    32  28  85 SE7       30.12F WCI  26
$$
MNZ037-044-045-052-053-040400-
   East Central Minnesota

CITY           SKY/WX    TMP DP  RH WIND       PRES   REMARKS
PRINCETON      CLOUDY    30  25  80 SE8       30.13F WCI  23
MORA           CLOUDY    30  23  74 S3        30.16F
CAMBRIDGE      CLOUDY    32  21  64 SE7       30.13F WCI  26
RUSH CITY      CLOUDY    28  23  80 SE3       30.15F
MOOSE LAKE     CLOUDY    30  21  69 S5        30.13F WCI  25
HINCKLEY       CLOUDY    30  23  74 SE7       30.15F WCI  23
CLOQUET        CLOUDY    28  19  69 CALM      30.14F
MCGREGOR       CLOUDY    30  23  74 SE9       30.11F WCI  22
$$
MNZ071>073-080-081-089-090-097-098-040400-
   Southwest Minnesota

CITY           SKY/WX    TMP DP  RH WIND       PRES   REMARKS
MONTEVIDEO     CLOUDY    34  34 100 S10       30.06S FOG     WCI  26
GRANITE FALLS  CLOUDY    35  34  94 SE14      30.07S FOG     WCI  26
CANBY          CLOUDY    36  33  88 S13G20    30.02F
MARSHALL       CLOUDY    34  31  88 S15       30.05S WCI  24
REDWOOD FALLS  CLOUDY    34  32  92 SE10      30.08S WCI  26
OLIVIA         LGT SNOW  34  32  93 SE10      30.07S WCI  26
PIPESTONE      CLOUDY    34  32  93 S18       30.01F FOG     WCI  23
WINDOM         CLOUDY    34  32  93 S10G17    30.07F WCI  26
WORTHINGTON    MIX PCPN  32  31  96 S13       30.06F WCI  22
JACKSON        CLOUDY    32  32 100 S9        30.09F FOG     WCI  24
TRACY          CLOUDY    34  32  92 S10G20    30.05S FOG     WCI  26
SLAYTON        CLOUDY    32  31  96 S17       30.05S FOG     WCI  21
$$
MNZ065>067-074>077-082>085-091>093-040400-
   South Central Minnesota

CITY           SKY/WX    TMP DP  RH WIND       PRES   REMARKS
MANKATO        FLURRIES  33  32  96 S9        30.13F WCI  25
NEW ULM        DRIZZLE   34  34 100 S12       30.10F WCI  25
ST JAMES       CLOUDY    34  32  93 SE9       30.12S WCI  26
FAIRMONT       CLOUDY    33  32  96 S13       30.11F WCI  24
GLENCOE        FLURRIES  33  32  96 SE9       30.11F WCI  25
FARIBAULT      CLOUDY    34  28  80 SE7       30.15S WCI  28
OWATONNA       CLOUDY    34  28  80 SE7       30.14F WCI  28
WASECA         LGT SNOW  32  32 100 SE6       30.14F WCI  26
ALBERT LEA     LGT SNOW  36  36 100 S9        30.14F
$$
MNZ078>079-086>088-094>096-040400-
   Southeast Minnesota

CITY           SKY/WX    TMP DP  RH WIND       PRES   REMARKS
ROCHESTER      PTCLDY    29  26  89 SE10      30.16F WCI  20
RED WING       CLOUDY    34  23  64 SE6       30.17F WCI  29
STANTON        CLOUDY    33  26  77 SE6       30.15F WCI  27
DODGE CENTER   CLOUDY    30  28  93 SE9       30.14F WCI  22
WINONA         PTCLDY    32  27  80 SE3       30.21F
AUSTIN         LGT SNOW  32  28  86 SE5       30.15F WCI  27
PRESTON        CLOUDY    29  24  81 SE6       30.18S WCI  23
$$
ABBREVIATIONS USED IN REMARKS
   TC - TEMPERATURES IN CELSIUS
  WCI - WIND CHILL INDEX
   HX - HEAT INDEX
  VSB - VISIBILITY
$$




USA.gov is the U.S. government's official web portal to all federal, state and local government web resources and services.